User: anonymous   Login
Location: ???????
(55.9142°N, 37.8256°E)
Time: 04:59:45
(UTC+00:00)
Language:

Lacrosse 4 Rocket - Orbit

View from above orbital plane
View from above orbital plane
View from above satellite
View from above satellite

Ground track
Ground track

The orbit data is extracted from the following two-line orbital elements,

1 26474U 00047B   24164.93987708  .00004069  00000-0  31134-3 0  9996
2 26474  67.9939  16.1668 0045568  27.1755 333.1761 15.02131684297329
Epoch (UTC): 12 June 2024 22:33:25
Eccentricity: 0.0045568
inclination: 67.9939°
perigee height: 529 km
apogee height: 592 km
right ascension of ascending node: 16.1668°
argument of perigee: 27.1755°
revolutions per day: 15.02131684
mean anomaly at epoch: 333.1761°
orbit number at epoch: 29732

The dashed part of the orbit path shows where the satellite is in the earth's shadow,  

DLR